Location: Starlight Cascade Observatory
(44.3775°N, 76.7633°W)
Time: 09:46:25
(UTC-05:00)

X-37B - Visible Passes

Search period start: 27 November 2020 00:00
Search period end: 07 December 2020 00:00
Orbit: 384 x 389 km, 45.0° (Epoch: 12 November)

Date Brightness Start Highest point End Pass type
(mag) Time Alt. Az. Time Alt. Az. Time Alt. Az.
27 Nov 2.6 17:41:51 10° SSW 17:44:05 18° SSE 17:45:13 15° ESE visible
27 Nov 4.0 19:17:11 10° WSW 19:17:30 12° WSW 19:17:30 12° WSW visible
28 Nov 1.2 18:18:46 10° SW 18:21:38 45° S 18:21:38 45° S visible
29 Nov 1.9 17:20:33 10° SW 17:23:21 29° SSE 17:25:44 13° E visible
29 Nov 3.0 18:56:36 10° W 18:58:00 24° W 18:58:00 24° W visible
30 Nov 0.6 17:58:04 10° WSW 18:01:12 68° SSE 18:02:04 43° E visible
01 Dec 1.3 16:59:38 10° SW 17:02:41 45° SSE 17:05:44 10° E visible
01 Dec 1.7 18:36:04 10° W 18:38:22 44° W 18:38:22 44° W visible
02 Dec 0.5 17:37:28 10° W 17:40:39 89° S 17:42:25 24° E visible
02 Dec 3.9 19:14:09 10° W 19:14:41 14° W 19:14:41 14° W visible
03 Dec 0.5 18:15:33 10° W 18:18:44 77° N 18:18:44 77° N visible
04 Dec 0.5 17:16:56 10° W 17:20:07 79° N 17:22:49 14° E visible
04 Dec 2.9 18:53:36 10° W 18:55:05 25° W 18:55:05 25° W visible
05 Dec 0.5 17:55:01 10° W 17:58:12 85° N 17:59:14 40° E visible
06 Dec 1.5 18:33:06 10° W 18:35:43 47° WSW 18:35:43 47° WSW visible
